No particular awareness of the weather is required.    There are no Weather-warnings


Meteo18 Weather Cam more information Meteo18 Weather Cam


Thunder radar more information blitzortung!


Rain radar more information rain snow radar


Visit our other weather sites:

Template documentation
and downloads

And another site



Weather Underground History page Text

Daily Summary for January 22, 2018 Units:  English    Metric   Both
« Previous Day
Next Day »
Daily Weekly Monthly Yearly Custom
  High: Low: Average:
Temperature: TemperatureC °F 8.0 °F 10.6 °F
Dew Point: DewpointC °F 5.9 °F 9.5 °F
Humidity: Humidity % 78 % 93 %
Wind Speed: WindSpeedKMH mph 0.0 mph 16.2 mph
Wind Gust: WindSpeedGustKMH mph - -
Wind:- - West
Pressure: PressurehPa in 1013.4 in -
Precipitation: 7.9 in    
Historical Graphs
 
 
Tabular Data for January 22, 2018
Time Temperature Dew Point Pressure Wind Wind Speed Wind Gust Humidity Rainfall Rate (Hourly)
TemperatureC °F DewpointC °F PressurehPa in Calm     Humidity % HourlyPrecipMM in
00:08 10.4 °F 9.5 °F 1016.1 in West 14.3 mph 22.5 mph 94 % 0.3 in
00:14 10.4 °F 9.5 °F 1016.1 in WSW 20.9 mph 20.9 mph 94 % 0.3 in
00:26 10.4 °F 9.6 °F 1016.5 in South 9.7 mph 29.0 mph 95 % 0.5 in
00:38 10.4 °F 9.6 °F 1016.1 in WSW 9.7 mph 25.7 mph 95 % 0.5 in
00:44 10.3 °F 9.5 °F 1016.1 in West 16.3 mph 25.7 mph 95 % 0.5 in
00:50 10.3 °F 9.5 °F 1016.1 in WSW 14.3 mph 22.5 mph 95 % 0.5 in
00:56 10.3 °F 9.5 °F 1016.1 in WSW 24.1 mph 30.6 mph 95 % 0.8 in
01:02 10.3 °F 9.7 °F 1016.1 in WSW 19.5 mph 27.4 mph 96 % 1.0 in
01:08 10.3 °F 9.7 °F 1015.8 in WNW 22.7 mph 32.2 mph 96 % 1.3 in
01:14 10.3 °F 9.7 °F 1016.1 in SSW 14.3 mph 22.5 mph 96 % 1.3 in
01:20 10.3 °F 9.7 °F 1016.1 in WSW 14.3 mph 25.7 mph 96 % 1.5 in
01:26 10.3 °F 9.7 °F 1016.1 in West 13.0 mph 29.0 mph 96 % 1.3 in
01:32 10.2 °F 9.6 °F 1015.8 in West 16.3 mph 25.7 mph 96 % 1.3 in
01:38 10.3 °F 9.7 °F 1015.8 in WSW 17.7 mph 35.4 mph 96 % 1.3 in
01:44 10.3 °F 9.7 °F 1015.8 in WSW 22.7 mph 30.6 mph 96 % 1.3 in
01:50 10.3 °F 9.7 °F 1015.8 in WSW 20.9 mph 25.7 mph 96 % 1.0 in
01:56 10.3 °F 9.7 °F 1015.8 in West 20.9 mph 30.6 mph 96 % 0.8 in
02:02 10.3 °F 9.7 °F 1015.8 in West 22.7 mph 25.7 mph 96 % 0.8 in
02:08 10.3 °F 9.7 °F 1015.8 in West 24.1 mph 24.1 mph 96 % 0.5 in
02:14 10.3 °F 9.7 °F 1015.8 in West 13.0 mph 22.5 mph 96 % 0.5 in
02:20 10.3 °F 9.7 °F 1015.8 in WSW 24.1 mph 27.4 mph 96 % 0.5 in
02:26 10.3 °F 9.7 °F 1015.8 in WSW 17.7 mph 24.1 mph 96 % 0.5 in
02:32 10.4 °F 9.8 °F 1016.1 in WSW 11.1 mph 27.4 mph 96 % 0.5 in
02:38 10.4 °F 9.8 °F 1016.1 in WSW 13.0 mph 27.4 mph 96 % 0.5 in
02:44 10.4 °F 9.8 °F 1016.1 in West 16.3 mph 25.7 mph 96 % 0.5 in
02:50 10.4 °F 9.8 °F 1016.1 in SW 11.1 mph 17.7 mph 96 % 0.5 in
02:56 10.4 °F 9.8 °F 1016.1 in West 9.7 mph 22.5 mph 96 % 0.5 in
03:02 10.5 °F 9.9 °F 1016.1 in West 28.8 mph 29.0 mph 96 % 0.3 in
03:08 10.5 °F 9.9 °F 1016.1 in WSW 9.7 mph 25.7 mph 96 % 0.5 in
03:14 10.6 °F 10.0 °F 1016.1 in West 16.3 mph 24.1 mph 96 % 0.5 in
03:20 10.6 °F 10.0 °F 1016.1 in WSW 11.1 mph 16.1 mph 96 % 0.5 in
03:26 10.6 °F 10.0 °F 1016.1 in SSW 7.9 mph 25.7 mph 96 % 0.5 in
03:32 10.6 °F 10.0 °F 1015.8 in West 19.5 mph 24.1 mph 96 % 0.5 in
03:50 10.7 °F 10.1 °F 1015.8 in West 20.9 mph 22.5 mph 96 % 1.0 in
03:56 10.7 °F 10.1 °F 1015.8 in West 19.5 mph 25.7 mph 96 % 1.0 in
04:02 10.7 °F 10.1 °F 1015.8 in West 13.0 mph 27.4 mph 96 % 1.3 in
04:08 10.7 °F 10.1 °F 1015.5 in West 11.1 mph 20.9 mph 96 % 1.0 in
04:14 10.7 °F 10.1 °F 1015.5 in WSW 24.1 mph 30.6 mph 96 % 1.3 in
04:20 10.7 °F 10.1 °F 1015.5 in West 24.1 mph 24.1 mph 96 % 1.3 in
04:32 10.8 °F 10.2 °F 1015.8 in West 16.3 mph 27.4 mph 96 % 1.3 in
04:38 10.8 °F 10.2 °F 1015.8 in WSW 9.7 mph 22.5 mph 96 % 1.0 in
04:50 10.8 °F 10.2 °F 1015.5 in West 16.3 mph 24.1 mph 96 % 0.8 in
04:56 10.8 °F 10.2 °F 1015.5 in WSW 16.3 mph 29.0 mph 96 % 0.8 in
05:02 10.9 °F 10.3 °F 1015.8 in West 17.7 mph 29.0 mph 96 % 0.5 in
05:08 10.9 °F 10.3 °F 1015.8 in West 11.1 mph 25.7 mph 96 % 0.5 in
05:14 10.9 °F 10.3 °F 1015.8 in WSW 11.1 mph 20.9 mph 96 % 0.5 in
05:20 10.9 °F 10.3 °F 1015.8 in West 14.3 mph 29.0 mph 96 % 0.5 in
05:33 10.9 °F 10.3 °F 1015.5 in SW 11.1 mph 27.4 mph 96 % 0.3 in
05:39 10.9 °F 10.3 °F 1015.5 in West 20.9 mph 25.7 mph 96 % 0.3 in
05:45 10.9 °F 10.3 °F 1015.5 in WSW 19.5 mph 20.9 mph 96 % 0.0 in
05:51 10.9 °F 10.3 °F 1015.8 in WSW 20.9 mph 20.9 mph 96 % 0.0 in
05:57 10.8 °F 10.2 °F 1015.5 in SW 17.7 mph 24.1 mph 96 % 0.3 in
06:03 10.8 °F 10.2 °F 1015.5 in WSW 14.3 mph 17.7 mph 96 % 0.3 in
06:09 10.8 °F 10.2 °F 1015.5 in West 11.1 mph 22.5 mph 96 % 0.3 in
06:15 10.8 °F 10.3 °F 1015.1 in WSW 19.5 mph 25.7 mph 97 % 0.3 in
06:21 10.8 °F 10.3 °F 1015.5 in SW 17.7 mph 29.0 mph 97 % 0.3 in
06:27 10.9 °F 10.4 °F 1015.5 in SW 19.5 mph 25.7 mph 97 % 0.3 in
06:33 10.9 °F 10.3 °F 1015.5 in West 16.3 mph 37.0 mph 96 % 0.3 in
06:39 10.9 °F 10.3 °F 1015.5 in West 22.7 mph 22.7 mph 96 % 0.3 in
06:45 10.9 °F 10.3 °F 1015.5 in West 19.5 mph 27.4 mph 96 % 0.3 in
06:51 10.9 °F 10.3 °F 1015.5 in WSW 16.3 mph 20.9 mph 96 % 0.5 in
07:03 10.9 °F 10.3 °F 1015.1 in WSW 7.9 mph 25.7 mph 96 % 0.3 in
07:09 10.9 °F 10.3 °F 1015.1 in SW 11.1 mph 20.9 mph 96 % 0.5 in
07:15 10.9 °F 10.3 °F 1015.1 in WSW 16.3 mph 27.4 mph 96 % 0.5 in
07:21 10.9 °F 10.3 °F 1015.1 in SSW 13.0 mph 25.7 mph 96 % 0.5 in
07:27 10.9 °F 10.3 °F 1015.1 in West 16.3 mph 27.4 mph 96 % 0.5 in
07:39 10.9 °F 10.3 °F 1014.8 in West 22.7 mph 33.8 mph 96 % 0.5 in
07:45 10.9 °F 10.3 °F 1015.1 in WSW 7.9 mph 24.1 mph 96 % 0.5 in
07:51 10.9 °F 10.3 °F 1015.1 in WSW 25.9 mph 27.4 mph 96 % 0.5 in
07:57 11.0 °F 10.4 °F 1014.8 in WSW 16.3 mph 25.7 mph 96 % 0.5 in
08:09 11.0 °F 10.4 °F 1014.8 in WSW 13.0 mph 30.6 mph 96 % 0.3 in
08:15 11.0 °F 10.4 °F 1015.1 in West 19.5 mph 29.0 mph 96 % 0.3 in
08:21 11.0 °F 10.4 °F 1014.8 in West 22.7 mph 33.8 mph 96 % 0.3 in
08:27 11.0 °F 10.4 °F 1014.8 in WSW 22.7 mph 40.2 mph 96 % 0.3 in
08:33 11.0 °F 10.4 °F 1014.8 in West 6.4 mph 29.0 mph 96 % 0.3 in
08:39 11.0 °F 10.4 °F 1014.8 in SW 27.4 mph 35.4 mph 96 % 0.3 in
08:45 11.0 °F 10.4 °F 1014.8 in WSW 24.1 mph 25.7 mph 96 % 0.0 in
08:51 11.0 °F 10.4 °F 1014.8 in SW 14.3 mph 30.6 mph 96 % 0.3 in
08:57 11.0 °F 10.4 °F 1014.8 in WSW 24.1 mph 37.0 mph 96 % 0.3 in
09:03 11.0 °F 10.4 °F 1014.8 in West 16.3 mph 29.0 mph 96 % 0.3 in
09:09 11.0 °F 10.4 °F 1014.4 in WSW 16.3 mph 35.4 mph 96 % 0.3 in
09:15 11.0 °F 10.4 °F 1014.4 in SW 30.6 mph 38.6 mph 96 % 0.3 in
09:21 11.0 °F 10.4 °F 1014.4 in WSW 17.7 mph 35.4 mph 96 % 0.3 in
09:33 11.0 °F 10.4 °F 1014.4 in WSW 19.5 mph 33.8 mph 96 % 0.3 in
09:39 11.0 °F 10.4 °F 1014.4 in WSW 28.8 mph 40.2 mph 96 % 0.3 in
09:45 11.0 °F 10.4 °F 1014.4 in West 28.8 mph 33.8 mph 96 % 0.3 in
09:51 11.1 °F 10.5 °F 1014.4 in WSW 17.7 mph 33.8 mph 96 % 0.0 in
10:03 11.1 °F 10.5 °F 1014.4 in West 25.9 mph 43.4 mph 96 % 0.3 in
10:15 11.1 °F 10.5 °F 1014.1 in SW 20.9 mph 43.4 mph 96 % 0.3 in
10:21 11.0 °F 10.4 °F 1013.8 in WSW 30.6 mph 48.3 mph 96 % 0.3 in
10:27 11.0 °F 10.4 °F 1013.8 in WSW 22.7 mph 33.8 mph 96 % 0.3 in
10:33 11.0 °F 10.4 °F 1013.8 in SW 22.7 mph 40.2 mph 96 % 0.3 in
10:39 11.0 °F 10.4 °F 1013.8 in SW 35.2 mph 40.2 mph 96 % 0.3 in
10:45 11.0 °F 10.2 °F 1013.8 in WSW 38.5 mph 38.6 mph 95 % 0.3 in
10:51 11.1 °F 10.3 °F 1014.1 in West 16.3 mph 46.7 mph 95 % 0.3 in
10:57 11.1 °F 10.3 °F 1014.1 in SW 35.2 mph 37.0 mph 95 % 0.5 in
11:03 11.0 °F 10.2 °F 1014.1 in WSW 19.5 mph 33.8 mph 95 % 0.5 in
11:09 11.0 °F 10.2 °F 1013.8 in SW 17.7 mph 32.2 mph 95 % 0.8 in
11:15 11.0 °F 10.2 °F 1013.8 in WSW 24.1 mph 53.1 mph 95 % 0.8 in
11:21 10.9 °F 10.1 °F 1013.8 in West 16.3 mph 25.7 mph 95 % 1.0 in
11:27 10.9 °F 10.3 °F 1013.8 in SW 32.0 mph 32.2 mph 96 % 1.3 in
11:39 10.9 °F 10.3 °F 1013.8 in West 20.9 mph 33.8 mph 96 % 1.5 in
11:45 10.9 °F 10.3 °F 1013.8 in WSW 19.5 mph 43.4 mph 96 % 1.5 in
11:51 11.0 °F 10.4 °F 1013.8 in WSW 30.6 mph 41.8 mph 96 % 1.5 in
11:57 11.0 °F 10.4 °F 1014.1 in WSW 30.6 mph 40.2 mph 96 % 1.0 in
12:03 11.0 °F 10.4 °F 1013.8 in WSW 19.5 mph 32.2 mph 96 % 1.0 in
12:09 11.1 °F 10.5 °F 1013.8 in West 11.1 mph 22.5 mph 96 % 0.8 in
12:15 11.1 °F 10.5 °F 1013.8 in WSW 17.7 mph 33.8 mph 96 % 1.0 in
12:21 11.2 °F 10.6 °F 1013.4 in WSW 20.9 mph 37.0 mph 96 % 0.8 in
12:27 11.2 °F 10.4 °F 1013.4 in WSW 27.4 mph 32.2 mph 95 % 0.5 in
12:33 11.3 °F 10.7 °F 1013.4 in SW 13.0 mph 25.7 mph 96 % 0.5 in
12:39 11.3 °F 10.7 °F 1013.4 in WSW 27.4 mph 37.0 mph 96 % 0.8 in
12:51 11.7 °F 10.4 °F 1013.4 in West 13.0 mph 43.4 mph 92 % 0.5 in
13:03 11.9 °F 10.5 °F 1013.4 in West 16.3 mph 33.8 mph 91 % 0.5 in
13:09 11.8 °F 10.4 °F 1013.8 in WSW 14.3 mph 27.4 mph 91 % 0.5 in
13:15 11.7 °F 10.3 °F 1013.4 in West 24.1 mph 38.6 mph 91 % 0.5 in
13:21 11.9 °F 10.3 °F 1013.4 in West 25.9 mph 29.0 mph 90 % 0.5 in
13:27 12.2 °F 10.3 °F 1013.4 in NW 14.3 mph 29.0 mph 88 % 0.5 in
13:33 12.4 °F 10.3 °F 1013.4 in WSW 19.5 mph 32.2 mph 87 % 0.3 in
13:39 12.6 °F 10.3 °F 1013.4 in NW 16.3 mph 33.8 mph 86 % 0.0 in
13:45 12.7 °F 10.4 °F 1013.4 in WSW 22.7 mph 29.0 mph 86 % 0.3 in
13:51 12.8 °F 10.0 °F 1013.4 in WNW 17.7 mph 35.4 mph 83 % 0.3 in
13:57 13.0 °F 10.2 °F 1013.4 in West 25.9 mph 30.6 mph 83 % 0.3 in
14:03 13.1 °F 9.7 °F 1013.4 in West 24.1 mph 38.6 mph 80 % 0.3 in
14:09 13.2 °F 9.4 °F 1013.4 in West 27.4 mph 38.6 mph 78 % 0.3 in
14:21 13.1 °F 9.4 °F 1013.4 in WSW 25.9 mph 46.7 mph 78 % 0.3 in
14:45 12.6 °F 10.1 °F 1013.8 in West 24.1 mph 35.4 mph 85 % 0.0 in
15:03 12.0 °F 10.2 °F 1014.1 in WSW 16.3 mph 25.7 mph 89 % 0.0 in
15:09 11.8 °F 10.4 °F 1014.1 in West 19.5 mph 29.0 mph 91 % 0.0 in
15:15 11.6 °F 10.3 °F 1014.1 in WSW 27.4 mph 29.0 mph 92 % 0.0 in
15:21 11.6 °F 10.3 °F 1014.4 in WSW 16.3 mph 24.1 mph 92 % 0.0 in
15:27 11.6 °F 10.3 °F 1014.4 in WSW 20.9 mph 20.9 mph 92 % 0.0 in
15:33 11.6 °F 10.3 °F 1014.4 in West 13.0 mph 22.5 mph 92 % 0.0 in
15:39 11.6 °F 10.3 °F 1014.8 in West 11.1 mph 20.9 mph 92 % 0.0 in
15:45 11.6 °F 10.3 °F 1014.8 in West 14.3 mph 30.6 mph 92 % 0.0 in
15:51 11.6 °F 10.3 °F 1015.1 in West 11.1 mph 19.3 mph 92 % 0.0 in
15:57 11.6 °F 10.3 °F 1015.1 in West 16.3 mph 24.1 mph 92 % 0.0 in
16:03 11.6 °F 10.3 °F 1015.1 in West 16.3 mph 22.5 mph 92 % 0.0 in
16:09 11.5 °F 10.2 °F 1015.5 in West 13.0 mph 20.9 mph 92 % 0.0 in
16:15 11.4 °F 10.3 °F 1015.5 in WNW 13.0 mph 22.5 mph 93 % 0.0 in
16:21 11.3 °F 10.2 °F 1015.5 in West 19.5 mph 22.5 mph 93 % 0.0 in
16:27 11.3 °F 10.4 °F 1015.5 in West 11.1 mph 20.9 mph 94 % 0.0 in
16:33 11.2 °F 10.3 °F 1015.8 in West 13.0 mph 19.3 mph 94 % 0.0 in
16:39 11.2 °F 10.3 °F 1015.8 in WSW 14.3 mph 19.3 mph 94 % 0.0 in
16:45 11.2 °F 10.3 °F 1016.1 in West 11.1 mph 20.9 mph 94 % 0.0 in
16:51 11.2 °F 10.3 °F 1016.1 in West 13.0 mph 17.7 mph 94 % 0.0 in
16:57 11.2 °F 10.3 °F 1016.1 in NW 3.2 mph 22.5 mph 94 % 0.0 in
17:03 11.2 °F 10.3 °F 1016.5 in West 13.0 mph 20.9 mph 94 % 0.0 in
17:09 11.2 °F 10.4 °F 1016.8 in NW 13.0 mph 16.1 mph 95 % 0.0 in
17:15 11.2 °F 10.3 °F 1016.8 in WNW 7.9 mph 20.9 mph 94 % 0.3 in
17:21 11.3 °F 10.4 °F 1016.8 in WNW 19.5 mph 20.9 mph 94 % 0.3 in
17:27 11.4 °F 10.3 °F 1017.2 in WNW 13.0 mph 20.9 mph 93 % 0.3 in
17:33 11.4 °F 10.3 °F 1017.5 in West 13.0 mph 20.9 mph 93 % 0.3 in
17:39 11.3 °F 10.2 °F 1017.8 in NW 11.1 mph 25.7 mph 93 % 0.5 in
17:45 11.1 °F 9.8 °F 1017.8 in WNW 19.5 mph 29.0 mph 92 % 0.5 in
17:51 11.0 °F 9.6 °F 1018.2 in NW 19.5 mph 25.7 mph 91 % 0.5 in
17:57 10.9 °F 9.5 °F 1018.5 in NNW 16.3 mph 33.8 mph 91 % 0.5 in
18:03 10.7 °F 9.3 °F 1018.8 in NNW 35.4 mph 35.4 mph 91 % 0.5 in
18:09 10.4 °F 9.0 °F 1018.8 in NNW 13.0 mph 33.8 mph 91 % 0.5 in
18:15 10.3 °F 8.7 °F 1019.2 in NNW 27.4 mph 27.4 mph 90 % 0.3 in
18:21 10.3 °F 8.6 °F 1019.2 in NW 9.7 mph 25.7 mph 89 % 0.3 in
18:27 10.1 °F 8.2 °F 1019.5 in NNW 16.3 mph 27.4 mph 88 % 0.3 in
18:33 9.9 °F 8.0 °F 1019.5 in NW 7.9 mph 27.4 mph 88 % 0.3 in
18:39 9.8 °F 7.9 °F 1019.5 in NW 9.7 mph 30.6 mph 88 % 0.0 in
18:43 9.8 °F 7.9 °F 1019.5 in NNW 16.3 mph 30.6 mph 88 % 0.0 in
18:55 9.7 °F 7.8 °F 1020.2 in WNW 9.7 mph 12.9 mph 88 % 0.0 in
19:15 9.6 °F 7.5 °F 1020.9 in NW 25.9 mph 25.9 mph 87 % 0.0 in
19:36 9.1 °F 7.1 °F 1021.2 in NNW 7.9 mph 14.5 mph 87 % 0.0 in
20:50 8.9 °F 6.3 °F 1023.6 in NW 16.3 mph 16.3 mph 84 % 0.0 in
21:32 8.6 °F 6.0 °F 1024.3 in WNW 7.9 mph 11.3 mph 84 % 0.0 in
21:44 8.6 °F 6.0 °F 1024.3 in WNW 4.7 mph 6.4 mph 84 % 0.0 in
21:52 8.6 °F 6.0 °F 1024.6 in WNW 3.2 mph 6.4 mph 84 % 0.0 in
22:00 8.6 °F 6.0 °F 1024.6 in WNW 4.7 mph 6.4 mph 84 % 0.0 in
22:02 8.6 °F 5.9 °F 1024.6 in WNW 3.2 mph 6.4 mph 83 % 0.0 in
22:08 8.5 °F 6.0 °F 1024.6 in West 1.4 mph 6.4 mph 84 % 0.0 in
22:16 8.4 °F 5.9 °F 1024.6 in Calm     84 % 0.0 in
22:20 8.4 °F 5.9 °F 1024.9 in WSW 1.4 mph 1.6 mph 84 % 0.0 in
22:28 8.4 °F 6.0 °F 1024.9 in Calm     85 % 0.0 in
22:37 8.3 °F 5.9 °F 1024.9 in WSW 1.4 mph 3.2 mph 85 % 0.0 in
22:42 8.3 °F 6.1 °F 1024.9 in WSW 1.4 mph 4.8 mph 86 % 0.0 in
22:48 8.3 °F 6.1 °F 1024.9 in SW 4.7 mph 4.8 mph 86 % 0.0 in
22:56 8.3 °F 6.1 °F 1024.9 in WSW 6.4 mph 9.7 mph 86 % 0.0 in
23:02 8.2 °F 6.0 °F 1024.9 in WSW 6.4 mph 8.0 mph 86 % 0.0 in
23:04 8.2 °F 6.0 °F 1024.9 in SW 4.7 mph 6.4 mph 86 % 0.0 in
23:10 8.2 °F 6.2 °F 1024.9 in SW 3.2 mph 6.4 mph 87 % 0.0 in
23:16 8.2 °F 6.3 °F 1025.3 in SW 1.4 mph 3.2 mph 88 % 0.0 in
23:22 8.2 °F 6.5 °F 1025.3 in SW 4.7 mph 11.3 mph 89 % 0.0 in
23:28 8.2 °F 6.5 °F 1025.3 in West 3.2 mph 11.3 mph 89 % 0.0 in
23:34 8.1 °F 6.6 °F 1025.3 in WSW 4.7 mph 9.7 mph 90 % 0.0 in
23:40 8.1 °F 6.7 °F 1025.3 in SW 4.7 mph 12.9 mph 91 % 0.0 in
23:46 8.1 °F 6.7 °F 1025.3 in WSW 3.2 mph 8.0 mph 91 % 0.0 in
23:52 8.0 °F 6.6 °F 1025.6 in West 4.7 mph 8.0 mph 91 % 0.0 in
23:58 8.0 °F 6.8 °F 1025.6 in SW 3.2 mph 8.0 mph 92 % 0.0 in
Meteo18
Compliments of Weather Underground - 4 mb

Script developed by  Jim McMurry - jmcmurry@mwt.net Adapted for the template by  Wim van der Kuil - Leuven-Template.eu

You find our weather info also at:

European Weather Network

Weather Underground

Equipment we use:

Weather-station
Davis Vue

Weather-program
Meteobridge

Weather-server
Raspberry PI 2 B+

Provider
1 and 1

Davis Vue

Meteobridge

Raspberry PI 2 B+

1 and 1